Location: Pulvis Stellarum Observatory
(41.6962°N, 71.4263°W)
Time: 03:14:31
(UTC-04:00)

Daily predictions for brighter satellites

Satellite Brightness Start Highest point End
(mag) Time Altitude Azimuth Time Altitude Azimuth Time Altitude Azimuth
Cosmos 2237 Rocket 3.8 00:12:24 29° NW 00:12:24 29° NW 00:17:01 10° N
COSMOS 2455 3.9 00:06:15 10° NNW 00:10:05 41° NNW 00:10:05 41° NNW
Cosmos 2369 Rocket 3.9 00:09:34 10° N 00:13:27 26° NE 00:13:27 26° NE
CENTAUR R/B 3.5 00:24:15 10° NW 00:30:30 51° WNW 00:30:30 51° WNW
ATLAS CENTAUR R/B 3.9 00:25:40 10° NW 00:33:12 45° NNW 00:33:12 45° NNW
USA 215 3.8 00:46:20 51° NE 00:46:32 51° NNE 00:52:48 10° NW
CZ-2C R/B 4.5 01:01:19 10° N 01:04:26 25° NW 01:04:26 25° NW
SL-16 R/B 4.2 01:21:36 21° NW 01:21:36 21° NW 01:25:30 10° N
Mayak 1.7 01:21:03 10° N 01:21:40 13° NNW 01:21:40 13° NNW
Cosmos 1943 Rocket 3.6 01:29:53 10° NNW 01:32:59 34° N 01:32:59 34° N
CZ-2D R/B 4.5 01:42:13 10° ENE 01:44:26 13° E 01:44:26 13° E
Cosmos 2369 Rocket 4.1 01:53:11 10° NW 01:55:12 22° NW 01:55:12 22° NW
Cosmos 1821 Rocket 4.5 02:07:03 55° ENE 02:07:03 55° ENE 02:12:25 10° NNE
Cosmos 1943 4.4 02:12:12 36° NNW 02:12:12 36° NNW 02:16:16 10° N
Lacrosse 5 4.4 02:07:47 10° NNW 02:11:28 20° NNE 02:15:07 10° ENE
BREEZE-M DEB (TANK) 3.8 02:11:46 69° N 02:11:46 69° N 02:25:54 10° ENE
Cosmos 1934 Rocket 4.5 02:16:05 50° ENE 02:16:05 50° ENE 02:21:31 10° NNE
SL-16 R/B 3.4 02:19:37 38° ESE 02:21:07 44° ENE 02:26:57 10° N
Cosmos 2098 Rocket 4.4 02:22:55 46° NE 02:22:55 46° NE 02:26:28 10° NNE
USA 229 DEB 4.0 02:16:39 10° NNW 02:23:48 66° NE 02:26:54 36° ESE
USA 229 4.0 02:16:46 10° NNW 02:23:54 66° NE 02:27:08 35° ESE
ADEOS Rocket 3.0 02:34:52 10° NNE 02:39:29 64° N 02:39:29 64° N
Cosmos 2221 4.0 02:43:51 35° NNE 02:43:51 35° NNE 02:46:30 10° NNE
IRS-1C 4.3 02:42:46 10° NNE 02:47:33 67° NE 02:47:33 67° NE
NPP 3.9 02:45:35 10° N 02:50:12 64° NNW 02:50:12 64° NNW
Resurs 1-4 Rocket 2.1 02:59:22 10° NNE 03:04:34 74° E 03:04:34 74° E
ARIANE 5 R/B 2.7 03:01:12 10° NNE 03:06:25 64° ESE 03:06:36 63° ESE
COSMOS 2406 3.1 03:14:18 70° WNW 03:14:22 71° WNW 03:20:05 10° NNE
MOS 1 Rocket 3.3 03:13:39 10° NNE 03:17:37 69° NE 03:17:37 69° NE
SL-27 R/B 4.1 03:24:06 31° NNE 03:24:06 31° NNE 03:26:04 10° NNE
Cosmos 292 Rocket 3.7 03:23:10 78° NNW 03:23:10 78° NNW 03:27:45 10° NNE
Sich 1 3.3 03:18:40 10° N 03:22:39 68° NNE 03:22:39 68° NNE
CZ-2D R/B 2.0 03:20:06 10° N 03:25:28 75° WNW 03:25:45 72° WSW
Cosmos 2285 Rocket 3.9 03:26:51 59° SW 03:27:58 72° WNW 03:34:24 10° NNE
Cosmos 1300 3.3 03:28:52 54° NE 03:28:52 54° NE 03:32:06 10° NNE
Tiangong 2 3.6 03:35:52 18° ESE 03:35:52 18° ESE 03:37:00 10° E
Cosmos 773 Rocket 4.4 03:32:47 44° SSE 03:34:10 58° ESE 03:39:23 10° NNE
Cosmos 2173 Rocket 4.4 03:33:03 26° SSE 03:36:36 60° E 03:42:51 10° NNE
IRS-1D 3.6 03:31:42 10° N 03:36:48 60° WNW 03:37:11 58° W
Shenzhou-11 Module 4.2 03:42:07 23° E 03:42:07 23° E 03:43:30 10° E
BREEZE M DEB (TANK) 2.7 03:40:16 67° W 03:40:45 77° SSW 03:50:29 10° SE
CZ-3A R/B 4.1 03:38:20 10° NW 03:50:25 - SSE 03:43:25 32° W
MOZ.5/SAFIR/RUBIN 5/SL-8 3.6 03:44:21 64° SSW 03:45:00 79° WSW 03:49:44 10° NNW
Spot 4 Rocket 4.3 03:41:09 10° N 03:46:06 48° WNW 03:46:35 47° W
Cosmos 1470 Rocket 4.2 03:42:21 10° N 03:46:36 54° E 03:49:11 22° SSE
ADEOS II 3.5 03:44:57 10° NNE 03:49:42 33° E 03:54:26 10° SSE
Cosmos 1515 Rocket 3.8 03:53:34 37° SSE 03:55:08 65° E 03:59:33 10° NNE
Lacrosse 5 2.3 03:50:17 10° NW 03:55:20 62° NE 04:00:21 10° ESE
COSMOS 2487 4.0 03:54:23 26° SE 03:55:23 32° ESE 03:58:34 10° NE
Cosmos 1459 Rocket 3.9 03:52:30 29° S 03:55:46 86° E 04:01:51 10° N
Cosmos 1633 Rocket 3.0 03:51:40 10° NNW 03:55:55 57° W 03:55:55 57° W
Cosmos 2082 Rocket 3.1 03:53:58 21° SSE 03:57:24 45° ESE 04:02:44 10° NE
ADEOS 3.8 03:53:14 10° N 03:58:17 51° WNW 03:59:25 43° WSW
Cosmos 1726 3.4 04:01:54 29° NW 04:01:54 29° NW 04:04:28 10° NNW
Cosmos 2228 Rocket 3.0 04:02:17 46° SSW 04:03:34 84° W 04:08:02 10° N
SL-16 R/B 3.3 04:04:42 30° W 04:04:51 30° W 04:10:15 10° NW
Cosmos 1315 Rocket 4.3 04:11:37 10° NW 04:13:44 22° WNW 04:13:44 22° WNW
BREEZE M DEB (TANK) 3.5 04:17:24 23° SE 04:17:24 23° SE 04:18:41 10° SE
Cosmos 1328 Rocket 3.8 04:17:08 40° WSW 04:18:05 48° WNW 04:22:19 10° N
NOSS 3-1 (A) 4.0 04:12:15 10° NW 04:19:53 69° WSW 04:28:17 10° SSE
Cosmos 1656 3.8 04:15:29 10° NNW 04:21:13 82° ENE 04:26:55 10° SSE
Meteor 2-3 Rocket 3.8 04:16:09 10° N 04:21:50 84° E 04:27:33 10° S
PSLV R/B 4.5 04:22:19 10° NNE 04:26:31 47° E 04:30:39 10° S
Cosmos 1892 2.6 04:23:41 10° N 04:27:33 83° W 04:31:10 11° S
Cosmos 2369 3.6 04:22:36 10° NNW 04:28:14 69° WSW 04:33:49 10° SSE
PSLV R/B 4.3 04:25:49 10° NNE 04:29:57 65° E 04:33:40 12° S
In-Cosmos 22 Rocket 4.4 04:25:45 10° NNW 04:30:50 44° W 04:34:27 18° SSW
Cosmos 2061 Rocket 4.2 04:28:50 20° SSW 04:33:17 56° W 04:39:36 10° N
UNKNOWN OBJECT B 4.1 04:31:34 10° NNW 04:34:57 26° WNW 04:35:51 24° W
Cosmos 1825 4.3 04:31:45 10° NNE 04:35:07 29° ENE 04:38:28 10° SE
Cosmos 923 Rocket 4.0 04:34:16 22° SSW 04:37:36 66° WNW 04:42:51 10° NNE
Cosmos 2016 Rocket 4.0 04:34:35 15° SSW 04:39:35 62° W 04:45:39 10° N
Cosmos 1933 Rocket 3.9 04:36:15 10° NNW 04:40:28 43° W 04:43:42 16° SSW
BREEZE-M DEB (TANK) 3.4 04:38:34 11° WNW 04:42:05 81° NNE 04:52:53 10° ESE
Cosmos 1151 Rocket 3.4 04:41:22 23° SW 04:43:39 44° WNW 04:47:46 10° N
Resurs 1-4 Rocket 3.9 04:40:51 10° NNW 04:43:50 15° WNW 04:45:39 13° W
Hubble Space Telescope 2.9 04:44:31 12° S 04:44:52 12° S 04:46:35 10° SSE
ARIANE 5 R/B 4.2 04:41:36 10° NNW 04:45:00 18° WNW 04:46:57 15° W
Cosmos 1864 Rocket 4.4 04:41:26 10° SSW 04:47:42 77° W 04:53:55 10° N
Meteor 1-27 4.3 04:44:07 14° SSW 04:48:52 57° WNW 04:54:22 10° N
Cosmos 1833 Rocket 2.7 04:45:25 16° SSW 04:49:57 70° WNW 04:55:37 10° NNE
Cosmos 1725 Rocket 4.0 04:48:20 10° SSW 04:54:28 68° W 05:00:39 10° N
Cosmos 1680 Rocket 3.6 04:51:04 15° SW 04:55:28 60° WNW 05:00:46 10° NNE
ATLAS 5 CENTAUR R/B 4.4 04:54:00 10° SE 04:56:13 13° ESE 04:58:30 10° E
Cosmos 1707 Rocket 3.9 04:55:11 10° S 04:59:33 67° E 05:03:55 10° NNE
Cosmos 2112 Rocket 4.1 04:58:05 12° SSW 05:03:02 61° WNW 05:08:21 10° NNE
CZ-4B R/B 3.2 04:59:06 10° N 05:03:33 61° WNW 05:08:01 10° SSW
Okean O Rocket 1.6 04:59:17 10° N 05:03:42 75° WNW 05:08:05 10° SSW
PSLV R/B 4.4 05:02:49 18° WSW 05:04:12 24° SSW 05:06:54 10° SSE
CZ-2D R/B 4.2 05:03:34 10° NW 05:04:33 10° NW 05:05:32 10° WNW
IRS-1C Rocket 4.2 05:00:31 10° NNE 05:05:49 82° ESE 05:11:05 10° SSW
Cosmos 1980 Rocket 2.4 05:01:27 10° NNW 05:07:05 79° ENE 05:12:42 10° SSE
CZ-2C R/B 4.1 05:03:04 10° SSE 05:07:28 66° ENE 05:11:56 10° N
Tiangong 2 1.1 05:08:15 15° W 05:10:51 85° N 05:14:05 10° E
Shenzhou-11 Module 2.1 05:14:00 12° W 05:16:53 72° N 05:19:58 10° E
Cosmos 1455 3.3 05:16:37 10° SW 05:19:42 25° WNW 05:22:52 10° NNW
Cosmos 2056 Rocket 3.6 05:15:39 10° NNW 05:21:04 89° ENE 05:26:30 10° SSE
Cosmos 1697 Rocket 2.9 05:16:01 10° NW 05:21:26 47° WSW 05:26:48 10° S
Tsikada Rocket 4.3 05:15:52 10° NNW 05:21:50 46° W 05:27:51 10° SSW
ADEOS II 3.0 05:24:46 10° N 05:29:20 31° WNW 05:33:53 10° SW
EO 1 Del DPAF 3.4 05:26:47 10° SSE 05:30:37 83° ENE 05:34:28 10° NNW
COSMOS 2487 4.4 05:28:43 10° W 05:30:54 15° WNW 05:33:06 10° NNW
Cosmos 921 Rocket 4.4 05:27:40 10° N 05:31:52 46° ENE 05:36:06 10° SE
